STARLINK-1937 (46773 NORAD) Tracking and Keplerian Element Data

This shows tracking and keplerian element data for the satellite.

Feedback or suggestion? Click here.




ElementValue
Catalog46773
NameSTARLINK-1937
Epoch Orbit180
Epoch Day330.91667824
Epoch Year2020
RAAN2.3961
Inclination53.0551
Eccentricity0.0001147
Argument of Perigee71.2922
Mean Anonmoly310.9467
Mean Motion15.4675009
Decay Rate-0.01078777
L11 46773U 20074AL 20330.91667824 -.01078777 00000-0 -23419-1 0 9990
L22 46773 53.0551 2.3961 0001147 71.2922 310.9467 15.46750090 1801

Live tracking and technical data element details for STARLINK-1937 (NORAD 46773). STARLINK-1937 can be tracked NOW for your location showing map with azimuth and elevation plus other details from your city location.

Track the satellite on the map from your city or location and see movement details for azimuth, elevation, latitude, longitude, range, height, and movement on the map or in text.







IsCatalogInMostPopularTable: catalog: 46773, numindb: 4
Update: records affected: 1



GetName: 46773 STARLINK-1937

Hit Count: updated at: Thu, 26 Nov 2020 17:42:55 GMT